Regional Weather Roundup
Issued by NWS Boston, MA

Current Version | Previous Version | Text Only | Print | Product List | Glossary Off
Versions: 1 2 3 4 5 6 7 8 9 10 11 12 13 14 15 16 17 18 19 20 21 22 23 24 25 26 27 28 29 30 31 32 33 34 35 36 37 38 39 40 41 42 43 44 45 46 47 48 49 50
000 ASUS41 KBOX 231710 RWRBOX REGIONAL WEATHER ROUNDUP NATIONAL WEATHER SERVICE BOSTON/NORTON MA 100 PM EDT SAT JUN 23 2018 NOTE: "FAIR" INDICATES FEW OR NO CLOUDS BELOW 12,000 FEET WITH NO SIGNIFICANT WEATHER AND/OR OBSTRUCTIONS TO VISIBILITY. MAZALL-231800- EASTERN MASSACHUSETTS CITY SKY/WX TMP DP RH WIND PRES REMARKS BOSTON CLOUDY 64 56 75 E9 29.94F BEVERLY CLOUDY 64 59 83 E6 29.94F LAWRENCE CLOUDY 63 53 70 N10 29.97F BEDFORD CLOUDY 65 58 78 NE6 29.92F BLUE HILL N/A 62 55 77 NE10 29.91F NORWOOD CLOUDY 66 56 70 N9 29.92F MARSHFIELD CLOUDY 63 55 77 NE7 29.93F PLYMOUTH CLOUDY 62 57 83 NE13 29.92F TAUNTON CLOUDY 64 56 75 VRB5 29.91F NEW BEDFORD CLOUDY 63 62 97 NE8 29.89F $$ MAZALL-231800- CAPE COD AND THE ISLANDS CITY SKY/WX TMP DP RH WIND PRES REMARKS FALMOUTH CLOUDY 63 63 100 NE9 29.91F HYANNIS CLOUDY 65 63 93 E6 29.89F CHATHAM LGT RAIN 61 60 97 NE10 29.91F FOG PROVINCETOWN CLOUDY 62 58 86 E9 29.94F NANTUCKET LGT RAIN 63 62 97 E12 29.88F MARTHAS VNYRD LGT RAIN 64 63 96 E8 29.88F FOG $$ MAZALL-231800- CENTRAL AND WESTERN MASSACHUSETTS CITY SKY/WX TMP DP RH WIND PRES REMARKS WORCESTER CLOUDY 59 47 64 N12 29.93F FITCHBURG CLOUDY 62 55 77 VRB5 29.95F ORANGE CLOUDY 62 53 72 VRB6 29.95F SPRINGFIELD CLOUDY 64 51 61 N8 29.88F WESTFIELD CLOUDY 63 52 67 NE7 29.90F NORTH ADAMS CLOUDY 61 44 53 E13G22 29.91F PITTSFIELD CLOUDY 59 48 67 NE8 29.90F $$ RIZALL-231800- RHODE ISLAND CITY SKY/WX TMP DP RH WIND PRES REMARKS PROVIDENCE CLOUDY 64 58 80 E9 29.90F NEWPORT LGT RAIN 63 62 97 NE9 29.87F FOG BLOCK ISLAND CLOUDY 62 62 100 E9G17 29.87F FOG SMITHFIELD CLOUDY 63 55 75 E8 29.91F WESTERLY CLOUDY 64 63 96 NE8 29.87F FOG $$ CTZALL-231800- CONNECTICUT CITY SKY/WX TMP DP RH WIND PRES REMARKS BRADLEY INTL CLOUDY 62 54 74 N9 29.90F HARTFORD CLOUDY 62 55 77 N7 29.89F BRIDGEPORT CLOUDY 63 58 83 NE9 29.86F DANBURY CLOUDY 60 57 89 VRB7 29.89F GROTON CLOUDY 64 62 93 NE7 29.85F NEW HAVEN CLOUDY 63 61 93 N9 29.86F FOG CHESTER CLOUDY 63 61 94 NE5 29.88F FOG MERIDEN CLOUDY 59 57 93 N6 29.88F WILLIMANTIC CLOUDY 65 59 81 NE8 29.89F OXFORD CLOUDY 58 56 93 E9 29.89F FOG $$ MEZ002-015-021-024-NHZ003-005-008-011-012-014-VTZ005-008-231800- NORTHERN NEW ENGLAND CITY SKY/WX TMP DP RH WIND PRES REMARKS PORTLAND ME CLOUDY 65 54 67 E7 30.00F BANGOR ME CLOUDY 67 47 48 S10 30.02F CONCORD NH HVY RAIN 61 56 83 CALM 29.97F MANCHESTER NH LGT RAIN 60 53 77 NE9 29.95F NASHUA NH CLOUDY 59 55 87 VRB7 29.96F PORTSMOUTH NH LGT RAIN 60 52 74 SE8 29.98 FOG JAFFREY NH CLOUDY 60 53 77 VRB6 29.96F KEENE NH LGT RAIN 59 51 75 N5 29.95F BURLINGTON VT CLOUDY 69 52 54 SE8 29.90F MT. WASHINGTON PTSUNNY 45 27 49 S23 N/A $$ NYZ052-076-231800- EASTERN NEW YORK CITY SKY/WX TMP DP RH WIND PRES REMARKS ALBANY LGT RAIN 57 53 86 N10 29.91F FOG NEW YORK CITY CLOUDY 63 58 83 NE14 29.86S $$ ANZALL-231800- MARINE OBSERVATIONS STATION/POSITION TIME TEMP WIND PRES VSBY WAVE AIR SEA DIR/SP/G HT/PER (UTC) (F) (DEG/KT/KT) (MB) (MI) (FT/S) BOSTON BUOY 1650 60 62 60/ 10/ 12 1013.8F 2/ 4 BUZZARDS BAY 1600 61 80/ 16/ 17 1012.7F NANTUCKET SOUND 1650 60 65 90/ 14/ 17 1011.9F 2/ 3 MASS BAY-STELLWA 1604 58 60 1013.4F 2/ 4 ISLE OF SHOALS 1700 59 60/ 8/ 8 1014.5F S OF BLOCK IS 1643 62 N/A 5/ 7 $$ ......................KEY......................... SKY/WX - SKY CONDITION/PRESENT WEATHER TMP - TEMPERATURE IN FAHRENHEIT DWPT - DEWPOINT IN FAHRENHEIT RH - RELATIVE HUMIDITY IN PERCENT WIND - DIRECTION AND SPEED IN MPH PRES - MEAN SEA LEVEL PRESSURE IN INCHES OF HG WCI - WIND CHILL INDEX VSB - VISIBILITY IN MILES HX - HEAT INDEX TC - TEMPERATURE IN CELSIUS VRB - VARIABLE WIND DIRECTION N/A - NOT AVAILABLE

USA.gov is the U.S. government's official web portal to all federal, state and local government web resources and services.